Weather History for Yuma MCAS, AZ

Change the Weather History Date:

Tuesday, February 12, 2013

  Actual Average Record
Temperature  
Mean Temperature 51 °F 61 °F  
Max Temperature 63 °F 73 °F 87 °F (1957)
Min Temperature 38 °F 50 °F 29 °F (1880)
Degree Days  
Heating Degree Days 14 4  
Month to date heating degree days 64 58  
Since 1 July heating degree days 585 566  
Cooling Degree Days 0 1  
Month to date cooling degree days 3 11  
Year to date cooling degree days 6 17  
Growing Degree Days 1 (Base 50)    
Moisture  
Dew Point 14 °F    
Average Humidity 30    
Maximum Humidity 51    
Minimum Humidity 9    
Precipitation  
Precipitation 0.00 in 0.01 in 0.37 in (1931)
Month to date precipitation T 0.15  
Year to date precipitation 1.02 0.52  
Sea Level Pressure  
Sea Level Pressure 30.25 in    
Wind  
Wind Speed 6 mph (North)    
Max Wind Speed 16 mph    
Max Gust Speed 22 mph    
Visibility 9 miles    
Events      
T = Trace of Precipitation, MM = Missing Value Source: NWS Daily Summary

Daily Weather History Graph

Daily Weather History Graph

Search for Another Location

Airport:

Trip Planner

Search our weather history database for the weather conditions in past years. The results will help you decide how hot, cold, wet, or windy it might be!

Date:

Astronomy

Feb. 12, 2013 Rise Set
Actual Time 7:23 AM MST 6:21 PM MST
Civil Twilight 6:58 AM MST 6:47 PM MST
Nautical Twilight 6:29 AM MST 7:16 PM MST
Astronomical Twilight 6:01 AM MST 7:44 PM MST
Moon 8:35 AM MST (2/12) 9:12 PM MST (2/12)
Length of Visible Light 11h 48m
Length of Day
10h 57m
Waxing Crescent, 8% of the Moon is Illuminated
Feb 12
Waxing Crescent
Feb 17
First Quarter
Feb 25
Full
Mar 4
Last Quarter
Mar 11
New

Hourly Weather History & Observations

Time (MST) Temp. Windchill Dew Point Humidity Pressure Visibility Wind Dir Wind Speed Gust Speed Precip Events Conditions
12:55 AM 48.9 °F - 17.1 °F 28% 30.21 in 7.0 mi NNW 4.6 mph - N/A   Clear
1:55 AM 45.0 °F - 21.0 °F 39% 30.21 in 10.0 mi Calm Calm - N/A   Clear
2:55 AM 42.1 °F - 25.0 °F 51% 30.21 in 10.0 mi Calm Calm - N/A   Clear
3:55 AM 41.0 °F - 24.1 °F 51% 30.22 in 10.0 mi Calm Calm - N/A   Clear
4:55 AM 42.1 °F - 19.9 °F 41% 30.22 in 10.0 mi Calm Calm - N/A   Clear
5:55 AM 39.0 °F - 19.9 °F 46% 30.24 in 7.0 mi Calm Calm - N/A   Clear
6:55 AM 41.0 °F 39.0 °F 17.1 °F 38% 30.26 in 10.0 mi NNE 3.5 mph - N/A   Clear
7:55 AM 42.1 °F 38.4 °F 19.0 °F 40% 30.29 in 8.0 mi ENE 5.8 mph - N/A   Clear
8:55 AM 48.9 °F - 16.0 °F 27% 30.31 in 10.0 mi NE 6.9 mph - N/A   Clear
9:55 AM 51.1 °F - 17.1 °F 26% 30.33 in 10.0 mi NE 5.8 mph - N/A   Clear
10:00 AM - - - N/A% - - North - - N/A   Unknown
10:55 AM 59.0 °F - 15.1 °F 18% 30.32 in 7.0 mi NNE 10.4 mph 16.1 mph N/A   Clear
11:55 AM 60.1 °F - 10.0 °F 14% 30.32 in 10.0 mi North 13.8 mph - N/A   Clear
12:55 PM 61.0 °F - 9.0 °F 13% 30.29 in 10.0 mi North 12.7 mph - N/A   Clear
1:55 PM 62.1 °F - 9.0 °F 12% 30.26 in 10.0 mi North 12.7 mph - N/A   Clear
2:55 PM 63.0 °F - 6.1 °F 11% 30.24 in 10.0 mi North 10.4 mph 19.6 mph N/A   Clear
3:55 PM 63.0 °F - 5.0 °F 10% 30.22 in 10.0 mi North 10.4 mph 16.1 mph N/A   Clear
4:55 PM 62.1 °F - 3.0 °F 9% 30.22 in 10.0 mi North 10.4 mph - N/A   Clear
5:55 PM 60.1 °F - 5.0 °F 11% 30.22 in 7.0 mi North 11.5 mph - N/A   Partly Cloudy
6:55 PM 57.0 °F - 8.1 °F 14% 30.23 in 10.0 mi North 8.1 mph - N/A   Partly Cloudy
7:13 PM - - - N/A% - - North - - N/A   Unknown
7:55 PM 55.0 °F - 9.0 °F 16% 30.23 in 10.0 mi North 6.9 mph - N/A   Partly Cloudy
8:55 PM 52.0 °F - 12.0 °F 20% 30.24 in 10.0 mi North 5.8 mph - N/A   Clear
9:55 PM 52.0 °F - 12.0 °F 20% 30.25 in 10.0 mi NNW 5.8 mph - N/A   Clear
10:55 PM 48.9 °F - 16.0 °F 27% 30.25 in 10.0 mi Calm Calm - N/A   Clear
11:55 PM 48.0 °F - 15.1 °F 27% 30.24 in 10.0 mi ENE 4.6 mph - N/A   Clear